Regional Weather Roundup
Issued by NWS Cleveland, OH

Home | Current Version | Previous Version | Graphics & Text | Print | Product List | Glossary On
Versions: 1 2 3 4 5 6 7 8 9 10 11 12 13 14 15 16 17 18 19 20 21 22 23 24 25 26 27 28 29 30 31 32 33 34 35 36 37 38 39 40 41 42 43 44 45 46 47 48 49 50
192
ASUS41 KCLE 130800
RWRCLE
OHIO REGIONAL WEATHER ROUNDUP
NATIONAL WEATHER SERVICE WILMINGTON, OH
300 AM EST SAT FEB 13 2016

NOTE: "FAIR" INDICATES FEW OR NO CLOUDS BELOW 12,000 FEET WITH NO
SIGNIFICANT WEATHER AND/OR OBSTRUCTIONS TO VISIBILITY.

OHZ001>008-015>018-024>027-034-035-043-044-130900-
   NORTHWEST OHIO

CITY           SKY/WX    TMP DP  RH WIND       PRES   REMARKS
DEFIANCE       FAIR       8  -4  58 N9        30.37R WCI  -5
FINDLAY        FAIR       8  -3  61 N9        30.32R WCI  -5
TOLEDO EXPRESS MOCLDY     6  -5  60 NW9       30.34R WCI  -8
TOLEDO EXEC    FAIR       8  -7  50 NW13      30.35R WCI  -8
LIMA           MOCLDY     9  -2  61 N14G24    30.31R WCI  -7
$$

OHZ009>014-019>023-028>033-038-089-130900-
   NORTHEAST OHIO

CITY           SKY/WX    TMP DP  RH WIND       PRES   REMARKS
CLE-HOPKINS    LGT SNOW   9   2  73 NW18G29   30.26R WCI -10
CLE-LAKEFRONT  CLOUDY    13   2  61 NW31G41   30.24R WCI  -9
CUY CO. ARPT   NOT AVBL
LORAIN-ELYRIA  FAIR       8  -7  50 N18G28    30.26R WCI -11
ASHTABULA      FLURRIES   9  -2  61 NW9G18    30.15R WCI  -4
AKRON-CANTON   FAIR       8  -5  55 NW15G25   30.17R WCI  -9
WOOSTER        NOT AVBL
MANSFIELD      MOCLDY     7  -2  66 NW10G22   30.22R WCI  -8
YOUNGSTOWN     LGT SNOW   8   2  76 NW17G24   30.14R WCI -10
$$

OHZ042-051>053-060>062-070>072-077>081-130900-
  SOUTHWEST OHIO

CITY           SKY/WX    TMP DP  RH WIND       PRES   REMARKS
CINC-COVINGTON FAIR      16   6  65 NW13      30.35R WCI   2
CINC-LUNKEN    FAIR      17   4  56 NW9G16    30.40R WCI   6
HAMILTON       FAIR      15   4  61 NW10      30.38R WCI   2
DAYTON         NOT AVBL
WRIGHT-PAT AFB FLURRIES  14   7  73 NW13      30.32R WCI   0
DAYTON GENERAL FAIR      13   3  64 NW9       30.32R WCI   1
WILMINGTON     MOCLDY    12   4  70 NW14      30.30R WCI  -3
$$

OHZ036-037-039>041-045>050-054>059-063>069-073>076-082>088-130900-
  CENTRAL AND SOUTHEAST OHIO

CITY           SKY/WX    TMP DP  RH WIND       PRES   REMARKS
COLUMBUS       FLURRIES  14   2  58 NW20      30.28R WCI  -3
OSU AIRPORT    LGT SNOW  13   4  67 NW16G25   30.28R WCI  -3
BOLTON FIELD   NOT AVBL
RICKENBACK AFB NOT AVBL
NEWARK         CLOUDY    15   5  64 NW14      30.25R WCI   0
MARION         FAIR       9  -3  58 N13       30.28R WCI  -7
LANCASTER      MOCLDY    14   3  61 NW18      30.27R WCI  -3
ZANESVILLE     FAIR      14   3  61 NW10      30.23R WCI   1
NEW PHILLY     FAIR      12   0  58 NW14G28   30.22R WCI  -3
$$




USA.gov is the U.S. government's official web portal to all federal, state and local government web resources and services.